www.pogodaiklimat.ru

Погода и климат >> Архив погоды >> Пакистан >> Митхи


ПОГОДА в Митхи

  • Прогноз погоды в Митхи
  • Монитор погоды в Митхи

АРХИВ ПОГОДЫ в Митхи

Время (UTC), дата Ветер
(напр.,м/с)
 
Видим.   Явления Облачность Т
(С)
Тd
(С)
f
(%)
Тe
(С)
Тes
(С)
Комфортность P
(гПа)
Po
(гПа)
Тmin
(С)
Tmax
(С)
R
(мм)
R24
(мм)
S
(см)
21 10.08 СЗ 2 4000 м 8/5 750 м
[St Ac trans]
+28.0 +26.6 92 +43 +43 опасность
перегрева
992.4 984.1
00 11.08 З 2 4000 м 5/3 750 м
[St Ac trans]
+27.0 +25.6 92 +40 +40 очень
душно
992.6 989.0
03 11.08 ЮЗ 4 2000 м в посл. час морось 10/8 600 м
[St As op]
+26.0 +24.6 92 +37 +37 очень
душно
991.5 987.9 +25.5 2
06 11.08 ЮЗ 8 2000 м слаб. морось 10/6 600 м
[St As op]
+26.5 +25.1 92 +38 +38 очень
душно
992.7 984.4 1
09 11.08 ЮЗ 6 2000 м в посл. час морось 8/5 600 м
[St Ac trans]
+26.5 +25.4 94 +39 +41 очень
душно
992.3 984.0 1
12 11.08 ЮЗ 6 4000 м в посл. час морось 9/6 600 м
[St Ac trans]
+28.0 +25.2 85 +41 +41 опасность
перегрева
991.6 988.0 +29.0 2
15 11.08 ЮЗ 4 4000 м в посл. час морось 8/8 600 м
[St]
+26.5 +24.4 88 +37 +37 очень
душно
996.9 988.5 1
18 11.08 Ю 3 4000 м {морось} 8/8 600 м
[St]
+26.0 +23.8 88 +36 +36 очень
душно
998.8 990.4
21 11.08 ЮЗ 2 4000 м 6/6 600 м
[St]
+25.0 +23.5 91 +34 +34 очень
душно
998.8 990.4
00 12.08 ЮЗ 2 4000 м 6/6 600 м
[St]
+24.5 +23.0 91 +32 +32 очень
душно
999.8 996.2
03 12.08 Ю 2 4000 м 8/5 600 м
[St Ac trans]
+26.5 +24.4 88 +37 +39 очень
душно
1000.5 996.9 +24.0
06 12.08 Ю 4 4000 м 8/5 600 м
[St Ac trans]
+28.5 +24.2 78 +40 +44 очень
душно
1001.3 992.9
09 12.08 ЮЗ 5 4000 м 8/5 600 м
[St Ac trans]
+30.0 +23.5 68 +41 +44 опасность
перегрева
999.8 991.5
12 12.08 Ю 3 4000 м 8/5 600 м
[St Ac trans]
+31.0 +23.9 66 +43 +44 опасность
перегрева
998.8 995.3 +32.5
15 12.08 Ю 1 4000 м 6/0
[Ac trans]
+29.5 +24.5 75 +42 +42 опасность
перегрева
999.9 991.6
18 12.08 Ю 2 4000 м 4/0
[Ac trans]
+29.0 +24.8 78 +41 +41 опасность
перегрева
1001.0 992.7
21 12.08 Ю 1 4000 м 4/0
[Ac trans]
+28.5 +25.0 81 +41 +41 опасность
перегрева
1000.7 992.3
00 13.08 ЮЗ 2 4000 м 5/3 750 м
[St Ac trans]
+27.0 +24.1 84 +37 +37 очень
душно
1000.9 997.3
03 13.08 Ю 1 4000 м 5/3 750 м
[St Ac trans]
+28.0 +23.7 77 +38 +42 очень
душно
1001.3 997.7 +26.0
06 13.08 Ю 3 4000 м 5/3 1050 м
[Sc Ac trans]
+31.0 +23.1 63 +41 +50 опасность
перегрева
1001.9 993.6
09 13.08 ЮЗ 5 4000 м 6/4 1050 м
[Sc Ac trans]
+33.5 +22.7 53 +43 +47 опасность
перегрева
1000.3 992.1
12 13.08 ЮЗ 5 4000 м 6/4 1050 м
[Sc Ac trans]
+33.5 +22.7 53 +43 +44 опасность
перегрева
999.1 995.6 +35.0
15 13.08 ЮЗ 3 4000 м 3/0
[Ac trans]
+32.0 +23.4 60 +43 +43 опасность
перегрева
999.5 991.3
18 13.08 ЮЗ 2 4000 м ясно +30.5 +24.1 69 +42 +42 опасность
перегрева
1001.4 993.1
21 13.08 ЮЗ 1 4000 м ясно +29.0 +24.8 78 +41 +41 опасность
перегрева
1001.2 992.9
00 14.08 ЮЗ 1 4000 м 3/0
[Ac trans]
+27.5 +24.7 85 +39 +39 очень
душно
1001.6 998.0
03 14.08 Ю 4 4000 м 8/5 750 м
[St Ac trans]
+28.0 +24.4 81 +39 +40 очень
душно
1002.0 998.4 +26.5
06 14.08 ЮЗ 5 4000 м 8/5 750 м
[St Ac trans]
+29.5 +24.5 75 +42 +45 опасность
перегрева
1002.0 993.7
09 14.08 Ю 4 4000 м 8/5 1050 м
[Sc Ac trans]
+31.5 +24.4 66 +44 +48 опасность
перегрева
1000.9 992.6
12 14.08 ЮЗ 5 4000 м 8/5 1050 м
[Cu Sc Ac trans]
+33.0 +25.3 64 +47 +48 опасность
перегрева
998.8 995.3 +34.0
15 14.08 ЮЗ 5 4000 м 8/5 750 м
[St Ac trans]
+31.0 +25.4 72 +45 +45 опасность
перегрева
1000.1 991.8
18 14.08 ЮЗ 5 4000 м 8/5 750 м
[St Ac trans]
+29.5 +25.3 78 +43 +43 опасность
перегрева
1001.3 993.0
21 14.08 ЮЗ 4 4000 м 8/5 750 м
[St Ac trans]
+28.5 +25.0 81 +41 +41 опасность
перегрева
1001.1 992.7
00 15.08 ЮЗ 3 4000 м 8/5 750 м
[St Ac trans]
+27.5 +24.7 85 +39 +39 очень
душно
1001.7 998.1
03 15.08 ЮЗ 3 4000 м 9/6 750 м
[St Ac trans]
+28.0 +25.2 85 +41 +42 опасность
перегрева
1002.1 998.6 +26.0
06 15.08 ЮЗ 4 4000 м 9/6 750 м
[St Ac trans]
+29.0 +24.8 78 +41 +44 опасность
перегрева
1002.6 994.2
09 15.08 ЮЗ 1 4000 м 9/6 750 м
[St Ac trans]
+30.5 +24.9 72 +44 +48 опасность
перегрева
1001.4 993.1
12 15.08 ЮЗ 3 4000 м 9/5 750 м
[St Ac trans]
+31.5 +25.2 69 +45 +46 опасность
перегрева
1000.2 996.7 +32.0
15 15.08 ЮЗ 4 4000 м 6/3 1050 м
[Sc Ac trans]
+30.0 +24.3 72 +42 +42 опасность
перегрева
1000.9 992.6
18 15.08 ЮЗ 2 4000 м 4/0
[Ac trans]
+29.0 +24.8 78 +41 +41 опасность
перегрева
1002.0 993.6
21 15.08 ЮЗ 2 4000 м 6/4 750 м
[St Ac trans]
+28.0 +25.2 85 +41 +41 опасность
перегрева
1001.0 992.6
00 16.08 ЮЗ 2 4000 м 8/4 750 м
[St Ac trans]
+27.5 +25.4 88 +40 +40 очень
душно
999.9 996.3
03 16.08 ЮЗ 3 4000 м 8/3 750 м
[St Ac trans]
+28.0 +25.2 85 +41 +42 опасность
перегрева
1000.8 997.2 +26.4
06 16.08 ЮЗ 3 4000 м 9/4 750 м
[St Ac trans]
+31.0 +23.9 66 +43 +47 опасность
перегрева
1001.3 993.0
09 16.08 ЮЗ 4 4000 м 9/5 750 м
[St Ac trans]
+32.0 +23.4 60 +43 +46 опасность
перегрева
999.5 991.3
12 16.08 ЮЗ 5 4000 м 9/5 750 м
[St Ac trans]
+32.5 +23.2 58 +43 +43 опасность
перегрева
998.2 994.7 +33.5
15 16.08 ЮЗ 4 4000 м 6/4 750 м
[St Ac trans]
+30.5 +24.1 69 +42 +42 опасность
перегрева
999.3 991.0
18 16.08 ЮЗ 4 4000 м 5/3 750 м
[St Ac trans]
+29.5 +24.8 76 +42 +42 опасность
перегрева
1000.4 992.1
21 16.08 ЮЗ 3 4000 м 6/4 750 м
[St Ac trans]
+28.0 +25.2 85 +41 +41 опасность
перегрева
999.2 990.8
00 17.08 ЮЗ 5 4000 м 8/5 750 м
[St Ac trans]
+27.0 +24.9 88 +39 +39 очень
душно
999.0 995.4
03 17.08 ЮЗ 6 4000 м 9/6 750 м
[St Ac trans]
+28.0 +24.4 81 +39 +40 очень
душно
999.8 996.2 +26.0
06 17.08 ЮЗ 6 4000 м 9/5 750 м
[St Ac trans]
+30.5 +23.3 65 +41 +43 опасность
перегрева
1000.3 992.0
09 17.08 ЮЗ 5 4000 м 9/5 750 м
[Sc Ac trans]
+32.5 +24.0 61 +44 +47 опасность
перегрева
999.0 990.8
12 17.08 ЮЗ 6 4000 м 6/6 750 м
[St]
+34.0 +23.3 54 +45 +45 опасность
перегрева
998.0 994.6 +35.0
15 17.08 ЮЗ 6 4000 м 4/0
[Ac trans]
+31.0 +23.9 66 +43 +43 опасность
перегрева
999.4 991.1
18 17.08 ЮЗ 4 4000 м 4/0
[Ac trans]
+29.0 +24.0 74 +40 +40 очень
душно
1001.1 992.8

 

Местоположение метеостанции Митхи (Пакистан): широта 24.74 долгота 69.78 высота над уровнем моря 74 м.

В архиве по умолчанию представлена погода в Митхи за последнюю неделю. Архивные данные за месяц целиком и за предыдущие месяцы, начиная с января 2011 года, Вы можете получить, выбрав интересующий диапазон дат из раскрывающегося списка и нажав кнопку "Ввод!".


*Определитесь, кто Вы:
робот инопланетянин человек

Внимание! Время в таблицах - всемирное. Для получения местного времени необходимо прибавить поправку, которая равна 5 ч.

Смотрите также архив погоды в соседних городах и на ближайших метеорологических станциях:

Погода в Чоре (Пакистан) (87 км)
Погода в Бадине (Пакистан) (90 км)
Погода в Мир Пур Кхас (Пакистан) (120 км)
Погода в Хайдарабате (Пакистан) (154 км)
Погода в Сакранде (Пакистан) (158 км)
Погода в Бхудже (Гуджарат, Индия) (166 км)
Погода в Кандле (Гуджарат, Индия) (184 км)
Погода в Татте (Пакистан) (190 км)
Погода в Налии (Гуджарат, Индия) (191 км)
Погода в Бармере (Раджастхан, Индия) (196 км)

Пояснения к столбцам:

Ветер - указаны скорость ветра в м/с - средняя за 10 мин, порывы в срок и между сроками (в фигурных скобках) и направление, откуда дует ветер: С - северный, СВ - северо-восточный, В - восточный, ЮВ - юго-восточный, Ю - южный, ЮЗ - юго-западный, З - западный, СЗ - северо-западный.
Видимость - горизонтальная дальность видимости в метрах или километрах. При видимости от 1 до 10 км при отсутствии осадков обычно наблюдается дымка, при ухудшении видимости до 1 км и менее - туман. В сухую погоду видимость может ухудшаться дымом, пылью или мглою.
Явления - указаны атмосферные явления, наблюдавшиеся в срок или в последний час перед сроком; фигурными скобками обозначены явления, наблюдавшиеся между сроками (за 1-3 часа до срока); квадратными скобками обозначены град или гололедные отложения с указанием их диаметра в мм.
Облачность - указаны через наклонную черту общая и нижняя облачность в баллах и высота нижней границы облаков в метрах; квадратными скобками обозначены формы облаков: Ci - перистые, Cs - перисто-слоистые, Cc - перисто-кучевые, Ac - высококучевые, As - высокослоистые, Sc - слоисто-кучевые, Ns - слоисто-дождевые, Cu - кучевые, Cb - кучево-дождевые. Подробнее классификацию облаков см. в Атласе облаков (PDF).
T - Температура воздуха - температура, измеренная на высоте 2 м над землей.
Td - Температура точки росы - температура, при понижении до которой содержащийся в воздухе водяной пар достигнет насыщения.
f - Относительная влажность воздуха - влажноcть воздуха, измеренная на высоте 2 м над землей.
Te - Эффективная температура - температура, которую ощущает одетый по сезону человек в тени. Характеристика душности погоды. При расчете учитывается влияние влажности воздуха и скорости ветра на теплоощущения человека.
Tes - Эффективная температура на солнце - температура, которую ощущает человек, с поправкой на солнечный нагрев. Характеристика знойности погоды. Зависит от высоты солнца над горизонтом, облачности и скорости ветра. Ночью, в пасмурную погоду, а также при ветре 12 м/с и более поправка равна нулю.
P - Атмосферное давление - приведенное к уровню моря атмосферное давление.
Po - Атмосферное давление - измеренное на уровне метеостанции атмосферное давление.
Tmin - Минимальная температура - минимум температуры воздуха на высоте 2 м над землей.
Tmax - Максимальная температура - максимум температуры воздуха на высоте 2 м над землей.
R - Количество осадков - Количество выпавших осадков за период времени, мм. При наведении курсора мыши на число - период времени, за который выпало указанное количество осадков.
R24 - Количество осадков - Количество выпавших осадков за 24 часа, мм.
S - Снежный покров - Высота снежного покрова, см. При наведении курсора мыши на число - состояние снежного покрова и степень покрытия местности в баллах.